Regional Weather Roundup
Issued by NWS

Home | Current Version | Previous Version | Graphics & Text | Print | Product List | Glossary On
Versions: 1 2 3 4 5 6 7 8 9 10 11 12 13 14 15 16 17 18 19 20 21 22 23 24 25 26 27 28 29 30 31 32 33 34 35 36 37 38 39 40 41 42 43 44 45 46 47 48 49 50
487
ASUS45 KSLC 180910
RWRUT

UTAH REGIONAL WEATHER ROUNDUP
NATIONAL WEATHER SERVICE SALT LAKE CITY UT
300 AM MDT WED OCT 18 2017

UTZ001>011-023>025-181000-

NORTHERN UTAH

CITY           SKY/WX    TMP DP  RH WIND       PRES   REMARKS
BRIGHAM CITY   CLEAR     36  27  71 CALM      30.18R
HILL AFB       CLEAR     46  19  33 E9        30.18R
LOGAN          CLEAR     31  26  82 CALM      30.19R
OGDEN          CLEAR     43  23  45 S8        30.17S
SALT LAKE CITY MOCLDY    43  34  70 NE3       30.17R
TOOELE VALLEY  CLEAR     34  28  80 SW3       30.19R
WENDOVER       NOT AVBL
WEST JORDAN    CLEAR     41  29  61 CALM      30.18R

$$

UTZ011>015-024>027-181000-

CENTRAL/NORTHEAST UTAH

CITY           SKY/WX    TMP DP  RH WIND       PRES   REMARKS
PROVO AIRPORT  PTCLDY    37  29  72 CALM      30.18R
MOAB/CANYONLAN MOCLDY    42  13  30 CALM      30.17R
DELTA          MOCLDY    43  16  33 CALM      30.15S
PRICE          MOCLDY    44   9  23 N6        30.22R
ROOSEVELT      CLOUDY    36  23  60 SW5       30.20S WCI  32
VERNAL         CLOUDY    37  22  54 SW6       30.18F WCI  32

$$

UTZ013>016-019>022-027-181000-

SOUTHERN UTAH

CITY           SKY/WX    TMP DP  RH WIND       PRES   REMARKS
BRYCE CANYON   MOCLDY    35  19  52 W8        30.32S WCI  29
CEDAR CITY     MOCLDY    50  17  27 SE7       30.18F
MILFORD        MOCLDY    51  20  29 CALM      30.15R
ST GEORGE      SUNNY     59  21  23 CALM      30.07S
HANKSVILLE     CLOUDY    41  16  36 CALM      30.20S
BLANDING         N/A     43  11  26 CALM      30.30F

$$

REGIONAL REPORTS     COLORADO/ARIZONA

CITY           SKY/WX    TMP DP  RH WIND       PRES   REMARKS
CRAIG, CO      CLOUDY    25  19  78 CALM      30.23S
GRAND JUNCTION CLOUDY    41  16  36 SE6       30.20S
RIFLE, CO      CLOUDY    35  18  49 SE3       30.26S
MONTROSE, CO   CLOUDY    36  15  42 SE12      30.27S WCI  28
CORTEZ, CO     CLOUDY    31  15  52 NE6       30.26S WCI  25
COLORADO CITY    N/A     43  25  49 S6        30.19F
PAGE, AZ       MOCLDY    55  20  25 W3        30.14S
GRAND CANYON   CLOUDY    34  16  47 CALM      30.28F HAZE
KINGMAN, AZ    CLEAR     60  29  30 S3        30.07S
FLAGSTAFF, AZ  PTCLDY    38  21  50 CALM      30.29F

$$

REGIONAL REPORTS    NEVADA/IDAHO/WYOMING

CITY           SKY/WX    TMP DP  RH WIND       PRES   REMARKS
LAS VEGAS, NV  PTCLDY    64  16  15 CALM      29.99S
ELY, NY        MOCLDY    38  -1  19 S13       30.25S WCI  30
ELKO, NV       CLOUDY    34  17  50 N5        30.22S WCI  30
POCATELLO, ID  CLOUDY    51  22  31 S12       30.15
BURLEY, ID     CLEAR     42  23  46 SW8       30.13S
FORT BRIDGER,    N/A     46   2  16 SW10      30.27R
EVANSTON, WY   CLOUDY    42   7  23 W8        30.26R
ROCK SPRINGS,  CLOUDY    46   2  16 SW12      30.21R
KEMMERER, WY   CLOUDY    36   7  30 SW3       30.25R

$$




USA.gov is the U.S. government's official web portal to all federal, state and local government web resources and services.